Weather History for Hillsdale, MI

Change the Weather History Date:

Thursday, January 10, 2013

  Actual Average Record
Temperature  
Mean Temperature 31 °F -  
Max Temperature 39 °F 26 °F 55 °F (1950)
Min Temperature 23 °F 12 °F -14 °F (1982)
Degree Days  
Heating Degree Days 34    
Moisture  
Dew Point 28 °F    
Average Humidity 82    
Maximum Humidity 96    
Minimum Humidity 62    
Precipitation  
Precipitation 0.00 in - - ()
Sea Level Pressure  
Sea Level Pressure 30.40 in    
Wind  
Wind Speed 4 mph (ESE)    
Max Wind Speed 18 mph    
Max Gust Speed 22 mph    
Visibility 9 miles    
Events Rain , Snow    
Averages and records for this station are not official NWS values.
T = Trace of Precipitation, MM = Missing Value Source: NWS Daily Summary

Daily Weather History Graph

Daily Weather History Graph

Search for Another Location

Airport:

Trip Planner

Search our weather history database for the weather conditions in past years. The results will help you decide how hot, cold, wet, or windy it might be!

Date:

Astronomy

Jan. 10, 2013 Rise Set
Actual Time 8:05 AM EST 5:27 PM EST
Civil Twilight 7:34 AM EST 5:58 PM EST
Nautical Twilight 6:59 AM EST 6:32 PM EST
Astronomical Twilight 6:26 AM EST 7:06 PM EST
Moon 6:44 AM EST (1/10) 4:34 PM EST (1/10)
Length of Visible Light 10h 23m
Length of Day
9h 21m
Waning Crescent, 2% of the Moon is Illuminated
Jan 10
Waning Crescent
Jan 11
New
Jan 18
First Quarter
Jan 26
Full
Feb 3
Last Quarter

Hourly Weather History & Observations

Time (EST) Temp. Windchill Dew Point Humidity Pressure Visibility Wind Dir Wind Speed Gust Speed Precip Events Conditions
12:15 AM 32.2 °F - 25.3 °F 76% 30.45 in 10.0 mi Calm Calm - N/A   Clear
12:34 AM 31.1 °F - 25.5 °F 80% 30.46 in 10.0 mi Calm Calm - N/A   Clear
12:55 AM 29.5 °F - 25.2 °F 84% 30.47 in 10.0 mi Calm Calm - N/A   Clear
1:14 AM 29.7 °F 26.1 °F 25.5 °F 85% 30.48 in 10.0 mi SSW 3.5 mph - N/A   Clear
1:34 AM 30.4 °F 25.6 °F 25.3 °F 82% 30.49 in 10.0 mi South 4.6 mph - N/A   Clear
1:54 AM 30.4 °F - 25.3 °F 82% 30.50 in 10.0 mi Calm Calm - N/A   Clear
2:15 AM 29.8 °F - 25.3 °F 83% 30.50 in 10.0 mi Calm Calm - N/A   Clear
2:34 AM 28.6 °F - 25.0 °F 86% 30.50 in 10.0 mi Calm Calm - N/A   Clear
2:55 AM 28.0 °F - 25.2 °F 89% 30.50 in 10.0 mi Calm Calm - N/A   Clear
3:15 AM 28.8 °F - 26.1 °F 90% 30.50 in 10.0 mi Calm Calm - N/A   Clear
3:34 AM 27.0 °F - 25.0 °F 92% 30.50 in 10.0 mi Calm Calm - N/A   Clear
3:55 AM 26.8 °F - 24.8 °F 92% 30.50 in 10.0 mi Calm Calm - N/A   Clear
4:14 AM 25.5 °F - 24.1 °F 94% 30.49 in 10.0 mi Calm Calm - N/A   Clear
4:35 AM 26.1 °F - 24.8 °F 95% 30.49 in 10.0 mi Calm Calm - N/A   Clear
4:55 AM 24.4 °F - 23.0 °F 94% 30.48 in 10.0 mi Calm Calm - N/A   Clear
5:14 AM 25.2 °F - 24.1 °F 96% 30.49 in 10.0 mi Calm Calm - N/A   Clear
5:35 AM 25.3 °F - 24.1 °F 95% 30.49 in 10.0 mi Calm Calm - N/A   Clear
5:55 AM 25.2 °F - 23.7 °F 94% 30.49 in 10.0 mi Calm Calm - N/A   Clear
6:14 AM 24.4 °F - 23.2 °F 95% 30.49 in 10.0 mi Calm Calm - N/A   Clear
6:35 AM 24.3 °F - 22.8 °F 94% 30.49 in 10.0 mi Calm Calm - N/A   Clear
6:55 AM 24.6 °F - 23.5 °F 96% 30.49 in 10.0 mi Calm Calm - N/A   Clear
7:15 AM 25.5 °F - 24.4 °F 96% 30.49 in 10.0 mi Calm Calm - N/A   Clear
7:35 AM 24.3 °F - 22.8 °F 94% 30.50 in 7.0 mi Calm Calm - N/A   Clear
7:54 AM 24.1 °F - 22.6 °F 94% 30.50 in 7.0 mi Calm Calm - N/A   Clear
8:15 AM 23.5 °F - 22.5 °F 96% 30.51 in 7.0 mi Calm Calm - N/A   Clear
8:34 AM 24.6 °F 20.3 °F 23.4 °F 95% 30.51 in 7.0 mi East 3.5 mph - N/A   Clear
8:55 AM 26.2 °F 20.7 °F 25.3 °F 96% 30.51 in 10.0 mi East 4.6 mph - N/A   Clear
9:15 AM 29.1 °F 24.1 °F 27.5 °F 94% 30.52 in 10.0 mi East 4.6 mph - N/A   Clear
9:34 AM 32.0 °F 26.4 °F 29.1 °F 89% 30.51 in 10.0 mi East 5.8 mph - N/A   Clear
9:55 AM 35.2 °F 29.5 °F 28.9 °F 78% 30.51 in 10.0 mi East 6.9 mph - N/A   Clear
10:14 AM 36.5 °F 31.8 °F 28.0 °F 71% 30.51 in 10.0 mi ESE 5.8 mph - N/A   Clear
10:35 AM 37.8 °F 32.5 °F 27.3 °F 66% 30.51 in 10.0 mi ESE 6.9 mph - N/A   Clear
10:55 AM 38.1 °F 31.7 °F 26.6 °F 63% 30.50 in 10.0 mi SE 9.2 mph - N/A   Clear
11:14 AM 38.5 °F 31.6 °F 27.0 °F 63% 30.50 in 10.0 mi SE 10.4 mph - N/A   Clear
11:35 AM 38.8 °F 32.1 °F 26.8 °F 62% 30.49 in 10.0 mi SE 10.4 mph - N/A   Clear
11:55 AM 38.5 °F 31.1 °F 27.0 °F 63% 30.47 in 10.0 mi ESE 11.5 mph 16.1 mph N/A   Clear
12:14 PM 37.8 °F 31.3 °F 27.1 °F 66% 30.46 in 10.0 mi SE 9.2 mph - N/A   Clear
12:35 PM 37.8 °F 29.8 °F 27.1 °F 66% 30.45 in 10.0 mi SE 12.7 mph - N/A   Clear
12:53 PM 37.8 °F 30.7 °F 27.7 °F 67% 30.44 in 10.0 mi SE 10.4 mph - N/A   Clear
1:15 PM 37.8 °F 30.7 °F 27.1 °F 66% 30.42 in 10.0 mi SE 10.4 mph 16.1 mph N/A   Clear
1:35 PM 38.5 °F 31.6 °F 27.9 °F 66% 30.41 in 10.0 mi SE 10.4 mph - N/A   Clear
1:54 PM 39.0 °F 32.8 °F 28.4 °F 66% 30.40 in 10.0 mi ESE 9.2 mph - N/A   Clear
2:15 PM 37.9 °F 31.5 °F 28.8 °F 70% 30.40 in 10.0 mi SE 9.2 mph - N/A   Clear
2:35 PM 37.9 °F 30.0 °F 29.3 °F 71% 30.39 in 10.0 mi ESE 12.7 mph 16.1 mph N/A   Clear
2:54 PM 38.5 °F 32.1 °F 29.7 °F 71% 30.38 in 10.0 mi ESE 9.2 mph - N/A   Clear
3:15 PM 38.1 °F 30.7 °F 29.3 °F 71% 30.37 in 10.0 mi ESE 11.5 mph - N/A   Clear
3:35 PM 38.1 °F 31.2 °F 29.3 °F 71% 30.36 in 10.0 mi SE 10.4 mph - N/A   Clear
3:54 PM 37.8 °F 31.3 °F 29.7 °F 73% 30.35 in 10.0 mi ESE 9.2 mph - N/A   Clear
4:15 PM 37.8 °F 31.3 °F 29.3 °F 72% 30.34 in 10.0 mi ESE 9.2 mph - N/A   Clear
4:34 PM 37.8 °F 31.3 °F 29.3 °F 72% 30.34 in 10.0 mi SE 9.2 mph - N/A   Clear
4:55 PM 37.8 °F 31.3 °F 29.8 °F 73% 30.33 in 10.0 mi ESE 9.2 mph - N/A   Clear
5:15 PM 37.2 °F 30.6 °F 29.7 °F 74% 30.32 in 10.0 mi ESE 9.2 mph - N/A   Clear
5:34 PM 37.0 °F 29.8 °F 28.9 °F 73% 30.31 in 10.0 mi ESE 10.4 mph 16.1 mph N/A   Clear
5:55 PM 36.9 °F 30.1 °F 29.1 °F 74% 30.31 in 10.0 mi ESE 9.2 mph - N/A   Clear
6:15 PM 36.9 °F 29.1 °F 29.7 °F 75% 30.30 in 10.0 mi ESE 11.5 mph - N/A   Clear
6:34 PM 36.7 °F 29.4 °F 30.6 °F 78% 30.30 in 10.0 mi ESE 10.4 mph 18.4 mph N/A   Scattered Clouds
6:55 PM 36.0 °F 27.5 °F 31.3 °F 83% 30.29 in 10.0 mi ESE 12.7 mph 17.3 mph N/A Rain Rain
7:14 PM 36.0 °F 28.5 °F 31.6 °F 84% 30.29 in 10.0 mi SE 10.4 mph - N/A   Light Drizzle
7:34 PM 36.0 °F 29.0 °F 31.8 °F 85% 30.28 in 7.0 mi SE 9.2 mph 16.1 mph N/A Rain Light Rain
7:55 PM 35.4 °F 27.8 °F 32.4 °F 89% 30.27 in 4.0 mi SE 10.4 mph 17.3 mph N/A Rain Rain
8:14 PM 35.2 °F 27.1 °F 32.7 °F 91% 30.26 in 3.0 mi ESE 11.5 mph 16.1 mph N/A Rain Rain
8:35 PM 35.4 °F 27.8 °F 32.9 °F 91% 30.24 in 7.0 mi ESE 10.4 mph - N/A   Overcast
8:55 PM 36.0 °F 28.0 °F 32.7 °F 88% 30.22 in 10.0 mi ESE 11.5 mph - N/A   Overcast
9:15 PM 36.0 °F 26.7 °F 32.5 °F 87% 30.20 in 10.0 mi ESE 15.0 mph - N/A   Overcast
9:55 PM 36.0 °F 28.5 °F 32.5 °F 87% 30.17 in 7.0 mi ESE 10.4 mph - N/A   Overcast
10:15 PM 36.0 °F 25.6 °F 32.4 °F 87% 30.16 in 10.0 mi ESE 18.4 mph - N/A   Overcast
10:34 PM 36.1 °F 26.9 °F 32.2 °F 86% 30.15 in 3.0 mi ESE 15.0 mph 21.9 mph N/A   Overcast
10:55 PM 36.0 °F 26.7 °F 33.4 °F 91% 30.13 in 3.0 mi ESE 15.0 mph 19.6 mph N/A Snow Light Snow
11:14 PM 36.0 °F 27.1 °F 33.3 °F 90% 30.12 in 7.0 mi ESE 13.8 mph - N/A   Drizzle
11:35 PM 35.6 °F 26.2 °F 33.3 °F 91% 30.11 in 1.5 mi ESE 15.0 mph 20.7 mph N/A Snow Light Snow
11:55 PM 35.6 °F 26.2 °F 33.8 °F 93% 30.10 in 3.0 mi ESE 15.0 mph - N/A Snow Light Snow